TimeCDT,TemperatureF,Dew PointF,Humidity,Sea Level PressureIn,VisibilityMPH,Wind Direction,Wind SpeedMPH,Gust SpeedMPH,PrecipitationIn,Events,Conditions,WindDirDegrees,DateUTC
12:15 AM,49.6,46.9,90,29.94,10.0,ENE,4.6,-,N/A,,Clear,60,2013-09-23 05:15:00
12:35 AM,49.8,46.4,88,29.94,10.0,East,5.8,-,N/A,,Clear,80,2013-09-23 05:35:00
12:55 AM,49.8,46.0,87,29.94,10.0,ENE,3.5,-,N/A,,Clear,70,2013-09-23 05:55:00
1:15 AM,49.1,45.5,87,29.94,10.0,East,3.5,-,N/A,,Clear,80,2013-09-23 06:15:00
1:35 AM,47.7,44.1,87,29.94,10.0,East,4.6,-,N/A,,Clear,80,2013-09-23 06:35:00
1:55 AM,49.1,44.8,85,29.94,10.0,East,4.6,-,N/A,,Clear,80,2013-09-23 06:55:00
2:15 AM,47.3,43.7,87,29.94,10.0,East,5.8,-,N/A,,Clear,80,2013-09-23 07:15:00
2:35 AM,48.2,44.2,86,29.95,10.0,East,5.8,-,N/A,,Clear,100,2013-09-23 07:35:00
2:55 AM,47.3,43.9,88,29.95,10.0,Calm,Calm,-,N/A,,Clear,0,2013-09-23 07:55:00
3:15 AM,49.6,44.6,83,29.95,10.0,Calm,Calm,-,N/A,,Clear,0,2013-09-23 08:15:00
3:35 AM,48.2,43.9,85,29.96,10.0,SSE,4.6,-,N/A,,Clear,160,2013-09-23 08:35:00
3:55 AM,48.6,44.1,84,29.96,10.0,SSE,3.5,-,N/A,,Clear,150,2013-09-23 08:55:00
4:15 AM,45.3,42.1,88,29.96,10.0,SSE,4.6,-,N/A,,Clear,150,2013-09-23 09:15:00
4:35 AM,47.5,43.7,87,29.95,10.0,South,4.6,-,N/A,,Clear,170,2013-09-23 09:35:00
4:55 AM,48.6,44.1,84,29.95,10.0,South,3.5,-,N/A,,Clear,180,2013-09-23 09:55:00
5:15 AM,48.6,44.2,85,29.95,10.0,South,3.5,-,N/A,,Clear,190,2013-09-23 10:15:00
5:35 AM,48.0,43.5,84,29.96,10.0,Calm,Calm,-,N/A,,Clear,0,2013-09-23 10:35:00
5:55 AM,48.0,43.3,84,29.96,10.0,South,5.8,-,N/A,,Clear,190,2013-09-23 10:55:00
6:15 AM,48.2,43.7,84,29.96,10.0,Calm,Calm,-,N/A,,Clear,0,2013-09-23 11:15:00
6:35 AM,47.7,43.3,85,29.97,10.0,SSW,6.9,-,N/A,,Clear,200,2013-09-23 11:35:00
6:55 AM,47.5,43.7,87,29.98,10.0,South,5.8,-,N/A,,Clear,190,2013-09-23 11:55:00
7:15 AM,47.5,43.7,87,29.99,10.0,Calm,Calm,-,N/A,,Clear,0,2013-09-23 12:15:00
7:35 AM,47.1,43.7,88,29.99,10.0,Calm,Calm,-,N/A,,Clear,0,2013-09-23 12:35:00
7:55 AM,48.2,44.4,87,29.99,10.0,Calm,Calm,-,N/A,,Clear,0,2013-09-23 12:55:00
8:15 AM,50.9,45.1,81,29.99,10.0,Calm,Calm,-,N/A,,Clear,0,2013-09-23 13:15:00
8:35 AM,52.0,45.9,80,29.99,10.0,Calm,Calm,-,N/A,,Clear,0,2013-09-23 13:35:00
8:55 AM,52.9,46.4,79,29.99,10.0,SSE,5.8,-,N/A,,Clear,150,2013-09-23 13:55:00
9:15 AM,54.5,47.7,78,29.99,10.0,SSE,4.6,-,N/A,,Clear,150,2013-09-23 14:15:00
9:35 AM,55.4,47.7,75,29.99,10.0,Calm,Calm,-,N/A,,Clear,0,2013-09-23 14:35:00
9:55 AM,57.6,48.4,71,29.99,10.0,Calm,Calm,-,N/A,,Clear,0,2013-09-23 14:55:00
10:15 AM,58.8,49.1,70,29.99,10.0,SSE,8.1,-,N/A,,Clear,150,2013-09-23 15:15:00
10:35 AM,61.0,50.2,68,29.99,10.0,SSW,4.6,-,N/A,,Clear,200,2013-09-23 15:35:00
10:55 AM,62.2,50.4,65,29.99,10.0,South,6.9,-,N/A,,Clear,190,2013-09-23 15:55:00
11:15 AM,63.1,50.7,64,29.98,10.0,SSE,6.9,-,N/A,,Clear,160,2013-09-23 16:15:00
11:35 AM,64.6,51.4,62,29.98,10.0,South,8.1,-,N/A,,Clear,170,2013-09-23 16:35:00
11:55 AM,65.7,51.6,60,29.98,10.0,South,8.1,-,N/A,,Clear,190,2013-09-23 16:55:00
12:15 PM,66.0,51.8,60,29.98,10.0,South,6.9,-,N/A,,Clear,190,2013-09-23 17:15:00
12:35 PM,67.1,52.0,58,29.98,10.0,SSW,6.9,18.4,N/A,,Clear,200,2013-09-23 17:35:00
12:55 PM,65.5,52.9,64,29.97,10.0,NE,8.1,-,N/A,,Clear,40,2013-09-23 17:55:00
1:15 PM,63.0,53.4,71,29.96,10.0,NNE,8.1,-,N/A,,Clear,30,2013-09-23 18:15:00
1:35 PM,62.4,53.4,72,29.96,10.0,NE,11.5,-,N/A,,Clear,40,2013-09-23 18:35:00
1:55 PM,62.2,52.9,71,29.95,10.0,ENE,12.7,18.4,N/A,,Clear,60,2013-09-23 18:55:00
2:15 PM,63.1,53.1,70,29.95,10.0,ENE,8.1,-,N/A,,Clear,60,2013-09-23 19:15:00
2:35 PM,64.0,53.8,69,29.94,10.0,ENE,8.1,-,N/A,,Clear,60,2013-09-23 19:35:00
2:55 PM,64.0,54.0,70,29.94,10.0,NNE,10.4,-,N/A,,Clear,30,2013-09-23 19:55:00
3:15 PM,64.0,54.3,71,29.93,10.0,East,3.5,-,N/A,,Clear,100,2013-09-23 20:15:00
3:35 PM,71.2,49.5,46,29.93,10.0,South,16.1,19.6,N/A,,Clear,170,2013-09-23 20:35:00
3:55 PM,70.7,48.7,46,29.93,10.0,SSE,8.1,-,N/A,,Clear,160,2013-09-23 20:55:00
4:15 PM,71.1,49.1,46,29.93,10.0,SSE,10.4,16.1,N/A,,Clear,160,2013-09-23 21:15:00
4:35 PM,64.2,54.0,69,29.93,7.0,ENE,4.6,-,N/A,,Clear,70,2013-09-23 21:35:00
4:55 PM,69.8,48.9,47,29.93,10.0,South,9.2,16.1,N/A,,Clear,180,2013-09-23 21:55:00
5:15 PM,62.4,54.5,75,29.93,10.0,NE,6.9,-,N/A,,Clear,40,2013-09-23 22:15:00
5:35 PM,61.0,54.3,79,29.92,10.0,NNE,6.9,-,N/A,,Clear,30,2013-09-23 22:35:00
5:55 PM,60.8,54.5,80,29.93,10.0,NNE,5.8,-,N/A,,Clear,30,2013-09-23 22:55:00
6:15 PM,59.2,54.3,84,29.93,10.0,NE,5.8,-,N/A,,Clear,50,2013-09-23 23:15:00
6:35 PM,57.9,53.8,86,29.93,10.0,NE,5.8,-,N/A,,Clear,50,2013-09-23 23:35:00
6:55 PM,56.5,53.6,90,29.93,10.0,NE,5.8,-,N/A,,Clear,50,2013-09-23 23:55:00
7:15 PM,54.9,53.1,94,29.94,10.0,NE,5.8,-,N/A,,Clear,40,2013-09-24 00:15:00
7:35 PM,53.6,52.3,95,29.94,10.0,NNE,4.6,-,N/A,,Clear,30,2013-09-24 00:35:00
7:55 PM,52.7,52.0,97,29.95,10.0,NE,3.5,-,N/A,,Clear,40,2013-09-24 00:55:00
8:15 PM,51.3,51.1,99,29.95,10.0,NE,3.5,-,N/A,,Clear,50,2013-09-24 01:15:00
8:35 PM,52.5,52.0,98,29.95,10.0,Calm,Calm,-,N/A,,Clear,0,2013-09-24 01:35:00
8:55 PM,49.5,48.6,97,29.95,10.0,Calm,Calm,-,N/A,,Clear,0,2013-09-24 01:55:00
9:15 PM,48.7,47.7,96,29.96,10.0,Calm,Calm,-,N/A,,Clear,0,2013-09-24 02:15:00
9:35 PM,51.4,47.8,87,29.96,10.0,Calm,Calm,-,N/A,,Clear,0,2013-09-24 02:35:00
9:55 PM,47.8,45.7,92,29.96,10.0,Calm,Calm,-,N/A,,Clear,0,2013-09-24 02:55:00
10:15 PM,45.7,45.3,99,29.96,10.0,Calm,Calm,-,N/A,,Clear,0,2013-09-24 03:15:00
10:35 PM,44.4,43.9,98,29.97,10.0,East,3.5,-,N/A,,Clear,80,2013-09-24 03:35:00
10:55 PM,44.8,44.4,99,29.97,10.0,East,3.5,-,N/A,,Clear,90,2013-09-24 03:55:00
11:15 PM,44.1,43.7,99,29.97,7.0,Calm,Calm,-,N/A,,Clear,0,2013-09-24 04:15:00
11:35 PM,42.8,41.7,96,29.97,10.0,Calm,Calm,-,N/A,,Clear,0,2013-09-24 04:35:00
11:55 PM,42.3,41.9,99,29.97,10.0,Calm,Calm,-,N/A,,Clear,0,2013-09-24 04:55:00